Time,TemperatureF,DewpointF,PressureIn,WindDirection,WindDirectionDegrees,WindSpeedMPH,WindSpeedGustMPH,Humidity,HourlyPrecipIn,Conditions,Clouds,dailyrainin,SoftwareType,DateUTC
2013-01-02 00:02:00,10.0,6.0,30.24,WNW,299,0.0,1.0,83,0.00,,,0.00,,2013-01-02 06:02:00,
2013-01-02 00:12:00,10.0,6.0,30.24,WNW,299,0.0,1.0,83,0.00,,,0.00,,2013-01-02 06:12:00,
2013-01-02 00:22:00,10.0,6.0,30.22,WNW,299,2.0,3.0,84,0.00,,,0.00,,2013-01-02 06:22:00,
2013-01-02 00:32:00,10.0,6.0,30.22,WNW,299,2.0,3.0,84,0.00,,,0.00,,2013-01-02 06:32:00,
2013-01-02 00:42:00,10.0,6.0,30.22,WNW,299,2.0,3.0,84,0.00,,,0.00,,2013-01-02 06:42:00,
2013-01-02 00:53:00,10.0,6.0,30.22,WNW,299,0.0,1.0,84,0.00,,,0.00,,2013-01-02 06:53:00,
2013-01-02 01:02:00,10.0,6.0,30.22,WNW,299,0.0,1.0,84,0.00,,,0.00,,2013-01-02 07:02:00,
2013-01-02 01:12:00,10.0,6.0,30.22,WNW,299,0.0,1.0,84,0.00,,,0.00,,2013-01-02 07:12:00,
2013-01-02 01:22:00,9.0,5.0,30.22,WNW,299,0.0,0.0,83,0.00,,,0.00,,2013-01-02 07:22:00,
2013-01-02 01:32:00,9.0,5.0,30.22,WNW,299,0.0,0.0,83,0.00,,,0.00,,2013-01-02 07:32:00,
2013-01-02 01:42:00,9.0,5.0,30.22,WNW,299,0.0,0.0,83,0.00,,,0.00,,2013-01-02 07:42:00,
2013-01-02 01:52:00,9.0,5.0,30.24,WNW,299,0.0,1.0,84,0.00,,,0.00,,2013-01-02 07:52:00,
2013-01-02 02:02:00,9.0,5.0,30.24,WNW,299,0.0,1.0,84,0.00,,,0.00,,2013-01-02 08:02:00,
2013-01-02 02:12:00,9.0,5.0,30.24,WNW,299,0.0,1.0,84,0.00,,,0.00,,2013-01-02 08:12:00,
2013-01-02 02:22:00,8.0,4.0,30.25,WNW,299,0.0,0.0,84,0.00,,,0.00,,2013-01-02 08:22:00,
2013-01-02 02:32:00,8.0,4.0,30.25,WNW,299,0.0,0.0,84,0.00,,,0.00,,2013-01-02 08:32:00,
2013-01-02 02:42:00,8.0,4.0,30.25,WNW,299,0.0,0.0,84,0.00,,,0.00,,2013-01-02 08:42:00,
2013-01-02 02:53:00,8.0,4.0,30.25,WNW,299,0.0,1.0,85,0.00,,,0.00,,2013-01-02 08:53:00,
2013-01-02 03:02:00,8.0,4.0,30.25,WNW,299,0.0,1.0,85,0.00,,,0.00,,2013-01-02 09:02:00,
2013-01-02 03:12:00,8.0,4.0,30.25,WNW,299,0.0,1.0,85,0.00,,,0.00,,2013-01-02 09:12:00,
2013-01-02 03:22:00,8.0,4.0,30.25,WNW,299,0.0,1.0,85,0.00,,,0.00,,2013-01-02 09:22:00,
2013-01-02 03:32:00,8.0,4.0,30.25,WNW,299,0.0,1.0,85,0.00,,,0.00,,2013-01-02 09:32:00,
2013-01-02 03:43:00,8.0,4.0,30.25,WNW,299,0.0,1.0,85,0.00,,,0.00,,2013-01-02 09:43:00,
2013-01-02 03:52:00,8.0,4.0,30.25,WNW,299,0.0,0.0,85,0.00,,,0.00,,2013-01-02 09:52:00,
2013-01-02 04:02:00,8.0,4.0,30.25,WNW,299,0.0,0.0,85,0.00,,,0.00,,2013-01-02 10:02:00,
2013-01-02 04:12:00,7.0,3.0,30.23,WNW,299,0.0,0.0,85,0.00,,,0.00,,2013-01-02 10:12:00,
2013-01-02 04:22:00,7.0,3.0,30.23,WNW,299,0.0,0.0,85,0.00,,,0.00,,2013-01-02 10:22:00,
2013-01-02 04:32:00,7.0,3.0,30.23,WNW,299,0.0,0.0,85,0.00,,,0.00,,2013-01-02 10:32:00,
2013-01-02 04:42:00,7.0,3.0,30.23,WNW,299,0.0,0.0,85,0.00,,,0.00,,2013-01-02 10:42:00,
2013-01-02 04:52:00,7.0,3.0,30.23,WNW,299,0.0,0.0,85,0.00,,,0.00,,2013-01-02 10:52:00,
2013-01-02 05:02:00,7.0,3.0,30.23,WNW,299,0.0,0.0,85,0.00,,,0.00,,2013-01-02 11:02:00,
2013-01-02 05:12:00,7.0,3.0,30.23,WNW,299,0.0,0.0,85,0.00,,,0.00,,2013-01-02 11:12:00,
2013-01-02 05:22:00,7.0,3.0,30.22,WNW,299,0.0,0.0,85,0.00,,,0.00,,2013-01-02 11:22:00,
2013-01-02 05:32:00,7.0,3.0,30.22,WNW,299,0.0,0.0,85,0.00,,,0.00,,2013-01-02 11:32:00,
2013-01-02 05:43:00,7.0,3.0,30.22,WNW,299,0.0,0.0,85,0.00,,,0.00,,2013-01-02 11:43:00,
2013-01-02 05:53:00,7.0,3.0,30.23,WNW,299,0.0,0.0,85,0.00,,,0.00,,2013-01-02 11:53:00,
2013-01-02 06:02:00,7.0,3.0,30.23,WNW,299,0.0,0.0,85,0.00,,,0.00,,2013-01-02 12:02:00,
2013-01-02 06:12:00,7.0,3.0,30.23,WNW,299,0.0,0.0,85,0.00,,,0.00,,2013-01-02 12:12:00,
2013-01-02 06:22:00,7.0,3.0,30.23,WNW,299,0.0,0.0,85,0.00,,,0.00,,2013-01-02 12:22:00,
2013-01-02 06:32:00,7.0,3.0,30.23,WNW,299,0.0,0.0,85,0.00,,,0.00,,2013-01-02 12:32:00,
2013-01-02 06:43:00,7.0,3.0,30.23,WNW,299,0.0,0.0,85,0.00,,,0.00,,2013-01-02 12:43:00,
2013-01-02 06:53:00,6.0,2.0,30.25,WNW,299,0.0,0.0,85,0.00,,,0.00,,2013-01-02 12:53:00,
2013-01-02 07:02:00,6.0,2.0,30.25,WNW,299,0.0,0.0,85,0.00,,,0.00,,2013-01-02 13:02:00,
2013-01-02 07:12:00,6.0,2.0,30.25,WNW,299,0.0,0.0,85,0.00,,,0.00,,2013-01-02 13:12:00,
2013-01-02 07:22:00,6.0,2.0,30.25,WNW,299,0.0,0.0,85,0.00,,,0.00,,2013-01-02 13:22:00,
2013-01-02 07:32:00,6.0,2.0,30.25,WNW,299,0.0,0.0,85,0.00,,,0.00,,2013-01-02 13:32:00,
2013-01-02 07:33:00,7.0,3.0,30.25,WNW,299,0.0,1.0,85,0.00,,,0.00,,2013-01-02 13:33:00,
2013-01-02 07:43:00,6.0,2.0,30.25,WNW,299,0.0,0.0,85,0.00,,,0.00,,2013-01-02 13:43:00,
2013-01-02 07:52:00,7.0,3.0,30.25,WNW,299,0.0,1.0,85,0.00,,,0.00,,2013-01-02 13:52:00,
2013-01-02 08:02:00,7.0,3.0,30.25,WNW,299,0.0,1.0,85,0.00,,,0.00,,2013-01-02 14:02:00,
2013-01-02 08:12:00,7.0,3.0,30.25,WNW,299,0.0,1.0,85,0.00,,,0.00,,2013-01-02 14:12:00,
2013-01-02 08:22:00,7.0,3.0,30.25,WNW,299,0.0,1.0,85,0.00,,,0.00,,2013-01-02 14:22:00,
2013-01-02 08:53:00,10.0,7.0,30.27,WNW,299,0.0,2.0,86,0.00,,,0.00,,2013-01-02 14:53:00,
2013-01-02 09:03:00,10.0,7.0,30.27,WNW,299,0.0,2.0,86,0.00,,,0.00,,2013-01-02 15:03:00,
2013-01-02 09:12:00,10.0,7.0,30.27,WNW,299,0.0,2.0,86,0.00,,,0.00,,2013-01-02 15:12:00,
2013-01-02 09:22:00,13.0,9.0,30.27,WNW,299,0.0,1.0,85,0.00,,,0.00,,2013-01-02 15:22:00,
2013-01-02 09:33:00,13.0,9.0,30.27,WNW,299,0.0,1.0,85,0.00,,,0.00,,2013-01-02 15:33:00,
2013-01-02 09:43:00,13.0,9.0,30.27,WNW,299,0.0,1.0,85,0.00,,,0.00,,2013-01-02 15:43:00,
2013-01-02 09:53:00,15.0,10.0,30.27,WNW,299,0.0,1.0,80,0.00,,,0.00,,2013-01-02 15:53:00,
2013-01-02 10:03:00,15.0,10.0,30.27,WNW,299,0.0,1.0,80,0.00,,,0.00,,2013-01-02 16:03:00,
2013-01-02 10:13:00,15.0,10.0,30.27,WNW,299,0.0,1.0,80,0.00,,,0.00,,2013-01-02 16:13:00,
2013-01-02 10:22:00,17.0,11.0,30.27,SSE,168,1.0,3.0,76,0.00,,,0.00,,2013-01-02 16:22:00,
2013-01-02 10:33:00,17.0,11.0,30.27,SSE,168,1.0,3.0,76,0.00,,,0.00,,2013-01-02 16:33:00,
2013-01-02 10:43:00,17.0,11.0,30.27,SSE,168,1.0,3.0,76,0.00,,,0.00,,2013-01-02 16:43:00,
2013-01-02 10:53:00,19.0,12.0,30.26,SSE,168,1.0,4.0,74,0.00,,,0.00,,2013-01-02 16:53:00,
2013-01-02 11:03:00,19.0,12.0,30.26,SSE,168,1.0,4.0,74,0.00,,,0.00,,2013-01-02 17:03:00,
2013-01-02 11:13:00,19.0,12.0,30.26,SSE,168,1.0,4.0,74,0.00,,,0.00,,2013-01-02 17:13:00,
2013-01-02 11:23:00,21.0,12.0,30.25,SSE,168,2.0,4.0,69,0.00,,,0.00,,2013-01-02 17:23:00,
2013-01-02 11:33:00,21.0,12.0,30.25,SSE,168,2.0,4.0,69,0.00,,,0.00,,2013-01-02 17:33:00,
2013-01-02 11:43:00,21.0,12.0,30.25,SSE,168,2.0,4.0,69,0.00,,,0.00,,2013-01-02 17:43:00,
2013-01-02 11:53:00,22.0,12.0,30.23,SSE,163,3.0,5.0,64,0.00,,,0.00,,2013-01-02 17:53:00,
2013-01-02 12:02:00,22.0,12.0,30.23,SSE,163,3.0,5.0,64,0.00,,,0.00,,2013-01-02 18:02:00,
2013-01-02 12:12:00,22.0,12.0,30.23,SSE,163,3.0,5.0,64,0.00,,,0.00,,2013-01-02 18:12:00,
2013-01-02 12:22:00,23.0,12.0,30.21,SSE,162,3.0,6.0,61,0.00,,,0.00,,2013-01-02 18:22:00,
2013-01-02 12:33:00,23.0,12.0,30.21,SSE,162,3.0,6.0,61,0.00,,,0.00,,2013-01-02 18:33:00,
2013-01-02 12:43:00,23.0,12.0,30.21,SSE,162,3.0,6.0,61,0.00,,,0.00,,2013-01-02 18:43:00,
2013-01-02 12:53:00,23.0,12.0,30.21,SSE,158,3.0,9.0,61,0.00,,,0.00,,2013-01-02 18:53:00,
2013-01-02 13:03:00,23.0,12.0,30.21,SSE,158,3.0,9.0,61,0.00,,,0.00,,2013-01-02 19:03:00,
2013-01-02 13:12:00,23.0,12.0,30.21,SSE,158,3.0,9.0,61,0.00,,,0.00,,2013-01-02 19:12:00,
2013-01-02 13:22:00,24.0,13.0,30.20,SSE,168,4.0,6.0,62,0.00,,,0.00,,2013-01-02 19:22:00,
2013-01-02 13:32:00,24.0,13.0,30.20,SSE,168,4.0,6.0,62,0.00,,,0.00,,2013-01-02 19:32:00,
2013-01-02 13:43:00,24.0,13.0,30.20,SSE,168,4.0,6.0,62,0.00,,,0.00,,2013-01-02 19:43:00,
2013-01-02 13:52:00,24.0,12.0,30.19,SSE,162,2.0,7.0,59,0.00,,,0.00,,2013-01-02 19:52:00,
2013-01-02 14:02:00,24.0,12.0,30.19,SSE,162,2.0,7.0,59,0.00,,,0.00,,2013-01-02 20:02:00,
2013-01-02 14:12:00,24.0,12.0,30.19,SSE,162,2.0,7.0,59,0.00,,,0.00,,2013-01-02 20:12:00,
2013-01-02 14:23:00,25.0,12.0,30.19,South,187,3.0,6.0,57,0.00,,,0.00,,2013-01-02 20:23:00,
2013-01-02 14:33:00,25.0,12.0,30.19,South,187,3.0,6.0,57,0.00,,,0.00,,2013-01-02 20:33:00,
2013-01-02 14:42:00,25.0,12.0,30.19,South,187,3.0,6.0,57,0.00,,,0.00,,2013-01-02 20:42:00,
2013-01-02 14:53:00,25.0,11.0,30.19,SSW,203,4.0,7.0,55,0.00,,,0.00,,2013-01-02 20:53:00,
2013-01-02 15:03:00,25.0,11.0,30.19,SSW,203,4.0,7.0,55,0.00,,,0.00,,2013-01-02 21:03:00,
2013-01-02 15:13:00,25.0,11.0,30.19,SSW,203,4.0,7.0,55,0.00,,,0.00,,2013-01-02 21:13:00,
2013-01-02 15:22:00,25.0,13.0,30.20,SSE,166,2.0,7.0,59,0.00,,,0.00,,2013-01-02 21:22:00,
2013-01-02 15:32:00,25.0,13.0,30.20,SSE,166,2.0,7.0,59,0.00,,,0.00,,2013-01-02 21:32:00,
2013-01-02 15:43:00,25.0,13.0,30.20,SSE,166,2.0,7.0,59,0.00,,,0.00,,2013-01-02 21:43:00,
2013-01-02 15:53:00,25.0,13.0,30.20,SSE,155,3.0,5.0,59,0.00,,,0.00,,2013-01-02 21:53:00,
2013-01-02 16:02:00,25.0,13.0,30.20,SSE,155,3.0,5.0,59,0.00,,,0.00,,2013-01-02 22:02:00,
2013-01-02 16:12:00,25.0,13.0,30.20,SSE,155,3.0,5.0,59,0.00,,,0.00,,2013-01-02 22:12:00,
2013-01-02 16:22:00,25.0,12.0,30.21,South,177,4.0,7.0,58,0.00,,,0.00,,2013-01-02 22:22:00,
2013-01-02 16:32:00,25.0,12.0,30.21,South,177,4.0,7.0,58,0.00,,,0.00,,2013-01-02 22:32:00,
2013-01-02 16:43:00,25.0,12.0,30.21,South,177,4.0,7.0,58,0.00,,,0.00,,2013-01-02 22:43:00,
2013-01-02 16:53:00,23.0,12.0,30.20,SSE,165,2.0,5.0,61,0.00,,,0.00,,2013-01-02 22:53:00,
2013-01-02 17:02:00,23.0,12.0,30.20,SSE,165,2.0,5.0,61,0.00,,,0.00,,2013-01-02 23:02:00,
2013-01-02 17:12:00,22.0,12.0,30.20,SSE,162,1.0,4.0,65,0.00,,,0.00,,2013-01-02 23:12:00,
2013-01-02 17:23:00,22.0,12.0,30.20,SSE,162,1.0,4.0,65,0.00,,,0.00,,2013-01-02 23:23:00,
2013-01-02 17:33:00,22.0,12.0,30.20,SSE,162,1.0,4.0,65,0.00,,,0.00,,2013-01-02 23:33:00,
2013-01-02 17:43:00,22.0,12.0,30.20,SSE,162,1.0,4.0,65,0.00,,,0.00,,2013-01-02 23:43:00,
2013-01-02 17:53:00,21.0,12.0,30.20,SSE,162,1.0,3.0,67,0.00,,,0.00,,2013-01-02 23:53:00,
2013-01-02 18:02:00,21.0,12.0,30.20,SSE,162,1.0,3.0,67,0.00,,,0.00,,2013-01-03 00:02:00,
2013-01-02 18:12:00,21.0,12.0,30.20,SSE,162,1.0,3.0,67,0.00,,,0.00,,2013-01-03 00:12:00,
2013-01-02 18:22:00,20.0,12.0,30.20,SSE,162,3.0,5.0,71,0.00,,,0.00,,2013-01-03 00:22:00,
2013-01-02 18:37:00,20.0,12.0,30.20,SSE,162,3.0,5.0,71,0.00,,,0.00,,2013-01-03 00:37:00,
2013-01-02 18:42:00,20.0,12.0,30.20,SSE,162,3.0,5.0,71,0.00,,,0.00,,2013-01-03 00:42:00,
2013-01-02 18:52:00,20.0,13.0,30.20,SE,146,2.0,4.0,73,0.00,,,0.00,,2013-01-03 00:52:00,
2013-01-02 19:02:00,20.0,13.0,30.20,SE,146,2.0,4.0,73,0.00,,,0.00,,2013-01-03 01:02:00,
2013-01-02 19:12:00,20.0,13.0,30.20,SE,146,2.0,4.0,73,0.00,,,0.00,,2013-01-03 01:12:00,
2013-01-02 19:22:00,20.0,13.0,30.20,SE,146,2.0,4.0,73,0.00,,,0.00,,2013-01-03 01:22:00,
2013-01-02 19:32:00,20.0,13.0,30.20,SE,146,2.0,4.0,73,0.00,,,0.00,,2013-01-03 01:32:00,
2013-01-02 20:23:00,18.0,12.0,30.21,SE,144,3.0,5.0,76,0.00,,,0.00,,2013-01-03 02:23:00,
2013-01-02 20:33:00,18.0,12.0,30.21,SE,144,3.0,5.0,76,0.00,,,0.00,,2013-01-03 02:33:00,
2013-01-02 20:43:00,18.0,12.0,30.21,SE,144,3.0,5.0,76,0.00,,,0.00,,2013-01-03 02:43:00,
2013-01-02 20:52:00,18.0,12.0,30.21,SE,144,3.0,5.0,76,0.00,,,0.00,,2013-01-03 02:52:00,
2013-01-02 21:02:00,18.0,12.0,30.21,SSE,160,3.0,6.0,76,0.00,,,0.00,,2013-01-03 03:02:00,
2013-01-02 21:12:00,18.0,12.0,30.20,SSE,157,4.0,8.0,76,0.00,,,0.00,,2013-01-03 03:12:00,
2013-01-02 21:22:00,18.0,12.0,30.20,SSE,157,4.0,8.0,76,0.00,,,0.00,,2013-01-03 03:22:00,
2013-01-02 21:45:00,18.0,12.0,30.20,SSE,157,4.0,8.0,76,0.00,,,0.00,,2013-01-03 03:45:00,
2013-01-02 21:53:00,18.0,12.0,30.20,SSE,153,3.0,5.0,76,0.00,,,0.00,,2013-01-03 03:53:00,
2013-01-02 22:02:00,18.0,12.0,30.20,SSE,153,3.0,5.0,76,0.00,,,0.00,,2013-01-03 04:02:00,
2013-01-02 22:12:00,18.0,12.0,30.20,SSE,153,3.0,5.0,76,0.00,,,0.00,,2013-01-03 04:12:00,
2013-01-02 22:22:00,17.0,11.0,30.21,SSE,153,0.0,3.0,78,0.00,,,0.00,,2013-01-03 04:22:00,
2013-01-02 22:32:00,17.0,11.0,30.21,SSE,153,0.0,3.0,78,0.00,,,0.00,,2013-01-03 04:32:00,
2013-01-02 22:43:00,17.0,11.0,30.21,SSE,153,0.0,3.0,78,0.00,,,0.00,,2013-01-03 04:43:00,
2013-01-02 22:52:00,17.0,11.0,30.21,SSE,153,1.0,4.0,77,0.00,,,0.00,,2013-01-03 04:52:00,
2013-01-02 23:03:00,17.0,11.0,30.21,SSE,153,1.0,4.0,77,0.00,,,0.00,,2013-01-03 05:03:00,
2013-01-02 23:12:00,18.0,12.0,30.21,SSE,164,1.0,4.0,77,0.00,,,0.00,,2013-01-03 05:12:00,
2013-01-02 23:22:00,18.0,12.0,30.21,SSE,164,1.0,4.0,77,0.00,,,0.00,,2013-01-03 05:22:00,
2013-01-02 23:33:00,18.0,12.0,30.21,SSE,164,1.0,4.0,77,0.00,,,0.00,,2013-01-03 05:33:00,
2013-01-02 23:42:00,18.0,12.0,30.21,SSE,164,1.0,4.0,77,0.00,,,0.00,,2013-01-03 05:42:00,
2013-01-02 23:53:00,18.0,12.0,30.20,SSE,164,1.0,3.0,77,0.00,,,0.00,,2013-01-03 05:53:00,